TimeCST,TemperatureF,Dew PointF,Humidity,Sea Level PressureIn,VisibilityMPH,Wind Direction,Wind SpeedMPH,Gust SpeedMPH,PrecipitationIn,Events,Conditions,WindDirDegrees,DateUTC
12:52 AM,21.9,10.0,60,30.27,10.0,SE,8.1,-,N/A,,Overcast,140,2013-01-25 06:52:00
1:52 AM,21.9,10.0,60,30.25,10.0,SSE,4.6,-,N/A,,Overcast,150,2013-01-25 07:52:00
2:52 AM,21.9,10.0,60,30.22,10.0,SSE,4.6,-,N/A,,Overcast,160,2013-01-25 08:52:00
3:38 AM,21.2,10.4,63,30.16,10.0,South,6.9,-,N/A,,Overcast,190,2013-01-25 09:38:00
3:52 AM,21.9,10.0,60,30.20,10.0,SSW,4.6,-,N/A,,Overcast,210,2013-01-25 09:52:00
4:23 AM,21.2,10.4,63,30.17,10.0,SW,3.5,-,N/A,,Overcast,220,2013-01-25 10:23:00
4:52 AM,21.9,10.0,60,30.19,10.0,Calm,Calm,-,N/A,,Overcast,0,2013-01-25 10:52:00
5:52 AM,21.9,10.0,60,30.16,10.0,SW,3.5,-,N/A,,Overcast,220,2013-01-25 11:52:00
6:52 AM,21.9,10.0,60,30.16,10.0,SW,5.8,-,N/A,,Overcast,230,2013-01-25 12:52:00
7:52 AM,21.9,10.9,63,30.15,10.0,WSW,12.7,-,N/A,,Overcast,240,2013-01-25 13:52:00
8:16 AM,23.0,12.2,63,30.12,10.0,WSW,10.4,-,N/A,,Overcast,250,2013-01-25 14:16:00
8:37 AM,21.2,12.2,68,30.12,10.0,WSW,10.4,-,N/A,,Scattered Clouds,250,2013-01-25 14:37:00
8:52 AM,23.0,12.0,63,30.14,10.0,WSW,13.8,-,N/A,,Clear,250,2013-01-25 14:52:00
9:52 AM,26.1,12.0,55,30.14,10.0,West,15.0,-,N/A,,Clear,260,2013-01-25 15:52:00
10:52 AM,28.9,10.9,47,30.13,10.0,West,15.0,-,N/A,,Clear,260,2013-01-25 16:52:00
11:52 AM,32.0,12.0,44,30.09,10.0,West,16.1,25.3,N/A,,Clear,280,2013-01-25 17:52:00
12:52 PM,34.0,14.0,44,30.07,10.0,West,21.9,27.6,N/A,,Clear,280,2013-01-25 18:52:00
1:52 PM,35.1,15.1,44,30.08,10.0,West,20.7,-,N/A,,Clear,280,2013-01-25 19:52:00
2:52 PM,35.1,19.0,52,30.07,10.0,WNW,20.7,27.6,N/A,,Clear,300,2013-01-25 20:52:00
3:52 PM,34.0,18.0,52,30.09,10.0,WNW,10.4,24.2,N/A,,Clear,290,2013-01-25 21:52:00
4:52 PM,33.1,19.0,56,30.11,10.0,WNW,11.5,-,N/A,,Clear,290,2013-01-25 22:52:00
5:52 PM,32.0,18.0,56,30.13,10.0,NW,11.5,-,N/A,,Clear,310,2013-01-25 23:52:00
6:52 PM,26.1,12.0,55,30.17,10.0,NNW,17.3,24.2,N/A,,Clear,340,2013-01-26 00:52:00
7:52 PM,23.0,6.1,48,30.20,10.0,NNW,15.0,-,N/A,,Clear,330,2013-01-26 01:52:00
8:52 PM,19.9,3.9,50,30.23,10.0,NW,11.5,-,N/A,,Clear,320,2013-01-26 02:52:00
9:52 PM,18.0,3.0,52,30.28,10.0,NW,9.2,-,N/A,,Clear,320,2013-01-26 03:52:00
10:52 PM,16.0,3.0,57,30.31,10.0,NW,10.4,-,N/A,,Clear,310,2013-01-26 04:52:00
11:52 PM,14.0,3.0,62,30.33,10.0,NW,9.2,-,N/A,,Clear,320,2013-01-26 05:52:00